Volver al catálogo

RESURS O1 DEB

ActivoSSO
NORAD 23344·DEBRIS·🇷🇺 Russia

Lanzado Nov 4, 1994 desde Baikonur Cosmodrome

Loading…

Próximos Pases (próximas 24 horas)

TLE

ActualizadoSource: Space-Track

Época: Sep 14, 2026, 11:42 UTC

1 23344U 94074C   26257.48771772  .00000503  00000-0  10465-3 0  9992
2 23344  97.9645 262.3174 0116863 155.9158 356.7052 14.60041402686260

Sigue RESURS O1 DEB en tiempo real con AllMySat

Download on the App Store